KV5W Weather Reports


time (UTC)temp
C
wind
direction
speed
KPH
gust
KPH
rain 1hr
cm
rain 24hr
cm
rain mn
cm
humidity
%
barometer
mb
20260506044512 24 51 1.6 4.8 0.00 0.00 0.00 82 1008.2
20260506043019 24 350 0.0 4.8 0.00 0.00 0.00 81 1008.2
20260506041522 24 55 0.0 4.8 0.00 0.00 0.00 81 1007.9
20260506040028 24 71 1.6 6.4 0.00 0.00 0.00 81 1007.6
20260506034526 25 126 1.6 6.4 0.00 0.00 0.00 80 1007.5
20260506033020 25 145 0.0 6.4 0.00 0.00 0.00 80 1007.2
20260506031539 25 131 0.0 6.4 0.00 0.00 0.00 80 1007.2
20260506030029 25 113 0.0 3.2 0.00 0.00 0.00 79 1007.1
20260506024533 25 72 0.0 3.2 0.00 0.00 0.00 78 1006.9
20260506023012 25 130 0.0 4.8 0.00 0.00 0.00 78 1006.7
20260506021520 26 76 0.0 4.8 0.00 0.00 0.00 77 1006.7
20260506020022 26 88 0.0 3.2 0.00 0.00 0.00 77 1006.8
20260506014526 26 107 0.0 3.2 0.00 0.00 0.00 76 1006.5
20260506013027 26 83 0.0 3.2 0.00 0.00 0.00 75 1006.6
20260506011518 26 40 0.0 0.0 0.00 0.00 0.00 74 1006.3
20260506010046 27 42 0.0 3.2 0.00 0.00 0.00 73 1006.0
20260506004526 27 128 0.0 4.8 0.00 0.00 0.00 72 1005.6
20260506003030 27 287 1.6 6.4 0.00 0.00 0.00 71 1005.6
20260506001530 27 81 0.0 3.2 0.00 0.00 0.00 70 1005.5
20260506000029 28 76 1.6 8.0 0.00 0.00 0.00 69 1005.8
20260505234503 28 311 0.0 4.8 0.00 0.00 0.00 69 1005.8
20260505233009 28 74 0.0 4.8 0.00 0.00 0.00 68 1005.6
20260505231513 28 74 0.0 4.8 0.00 0.00 0.00 67 1005.3
20260505230025 28 5 0.0 6.4 0.00 0.00 0.00 66 1005.2
20260505224522 29 50 1.6 4.8 0.00 0.00 0.00 66 1005.1
20260505223007 29 169 0.0 9.7 0.00 0.00 0.00 66 1005.2
20260505221512 30 42 1.6 9.7 0.00 0.00 0.00 64 1005.1
20260505220019 30 330 0.0 6.4 0.00 0.00 0.00 65 1005.4
20260505214521 30 59 0.0 11.3 0.00 0.00 0.00 64 1005.6
20260505213027 30 99 0.0 6.4 0.00 0.00 0.00 63 1005.9
20260505211508 30 25 0.0 6.4 0.00 0.00 0.00 63 1005.9
20260505210014 30 243 1.6 9.7 0.00 0.00 0.00 65 1006.0
20260505204521 29 9 1.6 14.5 0.00 0.00 0.00 66 1006.0
20260505203030 29 45 3.2 9.7 0.00 0.00 0.00 66 1006.1
20260505201510 29 149 3.2 8.0 0.00 0.00 0.00 65 1006.3
20260505200032 28 243 0.0 6.4 0.00 0.00 0.00 66 1006.5
20260505194518 29 17 1.6 6.4 0.00 0.00 0.00 66 1006.7
20260505193020 28 57 1.6 17.7 0.00 0.00 0.00 68 1006.9
20260505191526 28 21 3.2 8.0 0.00 0.00 0.00 66 1006.7
20260505190010 27 19 1.6 11.3 0.00 0.00 0.00 71 1006.7
20260505184516 27 51 1.6 8.0 0.00 0.00 0.00 71 1007.0
20260505183019 27 92 4.8 16.1 0.00 0.00 0.00 71 1007.1
20260505181522 26 81 1.6 14.5 0.00 0.00 0.00 71 1007.1
20260505180026 26 109 1.6 11.3 0.00 0.00 0.00 72 1007.4
20260505174510 26 236 0.0 8.0 0.00 0.00 0.00 71 1007.5
20260505173016 26 16 1.6 12.9 0.00 0.00 0.00 72 1007.2
20260505171535 26 58 0.0 9.7 0.00 0.00 0.00 73 1007.4
20260505170025 26 26 3.2 12.9 0.00 0.00 0.00 73 1007.4
20260505164528 25 76 1.6 9.7 0.00 0.00 0.00 76 1007.7
20260505163014 25 46 1.6 12.9 0.00 0.00 0.00 76 1007.6
20260505161519 23 339 0.0 8.0 0.00 0.00 0.00 79 1007.7
20260505153012 22 334 3.2 11.3 0.00 0.00 0.00 80 1007.4
20260505151529 22 290 4.8 16.1 0.00 0.00 0.00 80 1007.8
20260505124524 21 12 1.6 4.8 0.00 0.00 0.00 84 1007.6
20260505123027 21 5 1.6 8.0 0.00 0.00 0.00 84 1007.3
20260505121532 20 161 1.6 6.4 0.00 0.00 0.00 84 1007.2
20260505120055 20 38 1.6 11.3 0.00 0.00 0.00 84 1006.9
20260505114524 20 94 0.0 12.9 0.00 0.00 0.00 84 1006.8
20260505113027 20 177 0.0 4.8 0.00 0.00 0.00 84 1006.9
20260505111528 20 265 0.0 4.8 0.00 0.00 0.00 84 1007.0
20260505101526 20 101 1.6 8.0 0.00 0.00 0.00 84 1006.6
20260505100028 20 342 1.6 17.7 0.00 0.00 0.00 84 1006.7
20260505094516 20 46 3.2 17.7 0.00 0.00 0.00 84 1006.5
20260505093033 20 99 3.2 11.3 0.00 0.00 0.00 84 1006.6
20260505091529 20 79 1.6 11.3 0.00 0.00 0.00 84 1006.9
20260505090039 20 115 1.6 9.7 0.00 0.00 0.00 84 1006.9
20260505084516 19 13 3.2 9.7 0.00 0.00 0.00 84 1007.2
20260505083019 19 46 3.2 12.9 0.00 0.00 0.00 84 1007.2
20260505081528 19 132 3.2 11.3 0.00 0.00 0.00 84 1007.2
20260505080033 19 126 1.6 8.0 0.00 0.00 0.00 84 1007.4
20260505074528 19 62 3.2 11.3 0.00 0.00 0.00 83 1007.4
20260505073030 19 126 1.6 11.3 0.00 0.00 0.00 83 1007.7
20260505071513 19 92 3.2 11.3 0.00 0.00 0.00 82 1007.9
20260505070008 20 110 3.2 9.7 0.00 0.00 0.00 82 1008.2
20260505064530 20 92 1.6 11.3 0.00 0.00 0.00 81 1008.2
20260505063030 20 98 4.8 9.7 0.00 0.00 0.00 81 1008.4
20260505061545 20 86 4.8 12.9 0.00 0.00 0.00 80 1008.5
20260505060007 20 19 3.2 6.4 0.00 0.00 0.00 79 1008.5
20260505054508 20 74 1.6 11.3 0.00 0.00 0.00 79 1008.5
20260505053013 20 40 1.6 9.7 0.00 0.00 0.00 78 1008.7
20260505051521 20 124 1.6 6.4 0.00 0.00 0.00 77 1008.8